Вернуться в каталог

STARLINK-36869

АктивенСвязьVLEO
NORAD 67954·PAYLOAD·🇺🇸 United States

Запущен Feb 24, 2026 с Vandenberg Space Force Base

Loading…

Ближайшие Пролёты (ближайшие 24 часа)

TLE

СвежийSource: CelesTrak SupGP

Эпоха: Sep 14, 2026, 22:42 UTC

1 67954C 26037Y   26257.94631944 -.00009776  00000+0 -35402-3 0  2575
2 67954  42.9995 202.0174 0001239 258.9101 108.5561 15.27588992    11

Отслеживайте STARLINK-36869 в реальном времени с AllMySat

Download on the App Store